GW0701 Weather Reports


Display with metric or nautical units.
time (UTC)temp
F
wind
direction
speed
MPH
gust
MPH
rain 1hr
in
rain 24hr
in
rain mn
in
humidity
%
barometer
mb
20260504223612 80 173 5.0 7.0 0.00 0.00 0.00 47 999.7
20260504223108 80 196 6.0 9.0 0.00 0.00 0.00 47 999.7
20260504222605 80 231 6.0 7.0 0.00 0.00 0.00 47 999.8
20260504222102 80 205 5.0 8.0 0.00 0.00 0.00 46 999.8
20260504221559 80 227 6.0 8.0 0.00 0.00 0.00 46 999.8
20260504221056 80 201 4.0 6.0 0.00 0.00 0.00 48 999.8
20260504220552 80 243 4.0 6.0 0.00 0.00 0.00 46 1000.0
20260504220050 81 188 8.0 9.0 0.00 0.00 0.00 46 999.9
20260504215546 81 280 5.0 7.0 0.00 0.00 0.00 46 999.9
20260504215044 80 237 1.0 2.0 0.00 0.00 0.00 48 999.8
20260504214539 80 229 9.0 13.0 0.00 0.00 0.00 47 999.7
20260504214036 81 232 3.0 5.0 0.00 0.00 0.00 46 999.9
20260504213532 79 232 4.0 5.0 0.00 0.00 0.00 46 999.8
20260504213030 80 225 5.0 6.0 0.00 0.00 0.00 47 999.9
20260504212525 80 219 4.0 5.0 0.00 0.00 0.00 48 1000.0
20260504212023 80 233 6.0 7.0 0.00 0.00 0.00 47 1000.2
20260504211520 80 233 5.0 7.0 0.00 0.00 0.00 48 1000.1
20260504211017 80 219 6.0 7.0 0.00 0.00 0.00 46 1000.0
20260504210514 80 256 2.0 2.0 0.00 0.00 0.00 48 1000.2
20260504210011 81 249 4.0 5.0 0.00 0.00 0.00 47 1000.3
20260504205508 81 250 3.0 5.0 0.00 0.00 0.00 45 1000.4
20260504205006 80 219 4.0 6.0 0.00 0.00 0.00 46 1000.6
20260504204504 81 215 6.0 7.0 0.00 0.00 0.00 46 1000.4
20260504204003 80 202 3.0 3.0 0.00 0.00 0.00 50 1000.6
20260504203500 80 194 7.0 9.0 0.00 0.00 0.00 46 1000.4
20260504202956 80 245 2.0 2.0 0.00 0.00 0.00 46 1000.6
20260504202453 79 233 4.0 5.0 0.00 0.00 0.00 47 1000.7
20260504201950 80 224 6.0 8.0 0.00 0.00 0.00 47 1000.8
20260504201447 80 234 4.0 8.0 0.00 0.00 0.00 45 1000.8
20260504200944 80 211 5.0 5.0 0.00 0.00 0.00 48 1000.9
20260504200441 79 268 3.0 3.0 0.00 0.00 0.00 48 1000.9
20260504195938 80 243 4.0 7.0 0.00 0.00 0.00 45 1000.9
20260504195433 79 244 4.0 6.0 0.00 0.00 0.00 47 1001.0
20260504194930 79 226 4.0 6.0 0.00 0.00 0.00 47 1001.0
20260504194426 79 212 4.0 6.0 0.00 0.00 0.00 46 1000.9
20260504193922 79 238 5.0 6.0 0.00 0.00 0.00 47 1001.0
20260504193420 79 256 5.0 8.0 0.00 0.00 0.00 48 1000.8
20260504192918 79 229 6.0 7.0 0.00 0.00 0.00 46 1001.1
20260504192415 79 178 5.0 7.0 0.00 0.00 0.00 47 1001.0
20260504191914 79 239 3.0 5.0 0.00 0.00 0.00 48 1001.1
20260504191412 78 188 4.0 5.0 0.00 0.00 0.00 49 1001.0
20260504190907 78 239 4.0 8.0 0.00 0.00 0.00 50 1001.0
20260504190403 78 186 9.0 14.0 0.00 0.00 0.00 49 1001.0
20260504185900 78 186 7.0 10.0 0.00 0.00 0.00 50 1001.1
20260504185357 78 211 4.0 6.0 0.00 0.00 0.00 51 1000.8
20260504184853 78 246 3.0 5.0 0.00 0.00 0.00 51 1001.0
20260504184349 77 260 4.0 5.0 0.00 0.00 0.00 49 1000.9
20260504183845 78 227 3.0 3.0 0.00 0.00 0.00 50 1001.0
20260504183343 78 204 4.0 5.0 0.00 0.00 0.00 52 1001.1
20260504182840 78 206 6.0 7.0 0.00 0.00 0.00 51 1001.0
20260504182337 78 207 4.0 6.0 0.00 0.00 0.00 51 1001.1
20260504181834 78 212 6.0 9.0 0.00 0.00 0.00 52 1001.2
20260504181331 77 228 3.0 3.0 0.00 0.00 0.00 51 1001.2
20260504180830 77 243 5.0 7.0 0.00 0.00 0.00 51 1001.1
20260504180328 77 259 3.0 3.0 0.00 0.00 0.00 51 1001.3
20260504175826 77 241 5.0 7.0 0.00 0.00 0.00 51 1001.3
20260504175322 76 252 5.0 6.0 0.00 0.00 0.00 52 1001.4
20260504174821 76 243 5.0 7.0 0.00 0.00 0.00 52 1001.4
20260504174318 77 229 4.0 6.0 0.00 0.00 0.00 50 1001.4
20260504173815 77 228 4.0 5.0 0.00 0.00 0.00 53 1001.3
20260504173311 76 220 3.0 3.0 0.00 0.00 0.00 51 1001.4
20260504172809 76 229 4.0 6.0 0.00 0.00 0.00 52 1001.4
20260504172305 76 188 6.0 8.0 0.00 0.00 0.00 51 1001.3
20260504171801 76 217 3.0 3.0 0.00 0.00 0.00 53 1001.7
20260504171258 75 215 5.0 7.0 0.00 0.00 0.00 52 1001.4
20260504170755 76 189 2.0 2.0 0.00 0.00 0.00 53 1001.7
20260504170252 76 229 5.0 6.0 0.00 0.00 0.00 51 1001.7
20260504160210 74 219 4.0 6.0 0.00 0.00 0.00 54 1002.0
20260504151139 72 218 5.0 7.0 0.00 0.00 0.00 58 1002.2
20260504150636 71 257 6.0 10.0 0.00 0.00 0.00 58 1002.5
20260504150133 71 198 5.0 6.0 0.00 0.00 0.00 58 1002.3
20260504141101 69 228 4.0 5.0 0.00 0.00 0.00 64 1003.1
20260504140558 69 214 3.0 3.0 0.00 0.00 0.00 66 1003.0
20260504130522 63 200 2.0 2.0 0.00 0.00 0.00 75 1003.5
20260504110409 52 208 0.0 0.0 0.00 0.00 0.00 88 1003.9
20260504100326 51 248 0.0 0.0 0.00 0.00 0.00 90 1004.5
20260504081720 53 223 1.0 1.0 0.00 0.00 0.00 81 1005.4
20260504081216 53 224 0.0 1.0 0.00 0.00 0.00 82 1005.6
20260504080712 53 217 0.0 0.0 0.00 0.00 0.00 82 1005.5
20260504080209 53 215 0.0 1.0 0.00 0.00 0.00 82 1005.8
20260504070137 57 250 0.0 0.0 0.00 0.00 0.00 72 1006.2
20260504050526 58 224 1.0 2.0 0.00 0.00 0.00 71 1006.9
20260504050023 58 221 0.0 1.0 0.00 0.00 0.00 66 1006.7
20260504045519 57 223 1.0 1.0 0.00 0.00 0.00 68 1006.3
20260504045015 58 239 0.0 0.0 0.00 0.00 0.00 68 1006.8
20260504044512 59 239 0.0 0.0 0.00 0.00 0.00 64 1006.7
20260504044009 59 240 0.0 0.0 0.00 0.00 0.00 65 1006.8
20260504043506 59 230 0.0 0.0 0.00 0.00 0.00 66 1006.8
20260504043004 59 249 0.0 0.0 0.00 0.00 0.00 62 1007.1
20260504042500 59 249 1.0 1.0 0.00 0.00 0.00 64 1006.8
20260504041957 60 249 0.0 0.0 0.00 0.00 0.00 63 1007.0
20260504041453 60 250 0.0 0.0 0.00 0.00 0.00 65 1006.9
20260504040949 61 251 1.0 1.0 0.00 0.00 0.00 61 1007.1
20260504040447 61 248 0.0 0.0 0.00 0.00 0.00 61 1007.2
20260504035943 61 248 0.0 1.0 0.00 0.00 0.00 59 1007.4
20260504035441 60 244 1.0 1.0 0.00 0.00 0.00 63 1007.6
20260504034937 60 227 0.0 0.0 0.00 0.00 0.00 65 1007.4
20260504034434 60 227 1.0 1.0 0.00 0.00 0.00 65 1007.4
20260504033931 62 234 0.0 0.0 0.00 0.00 0.00 60 1007.4
20260504033429 61 225 0.0 0.0 0.00 0.00 0.00 60 1007.7
20260504032926 61 224 0.0 0.0 0.00 0.00 0.00 63 1007.6
20260504032423 61 224 1.0 1.0 0.00 0.00 0.00 64 1007.6
20260504031919 62 224 1.0 1.0 0.00 0.00 0.00 63 1007.6
20260504031417 62 225 1.0 1.0 0.00 0.00 0.00 62 1007.8
20260504030913 64 231 1.0 1.0 0.00 0.00 0.00 57 1007.8
20260504030410 65 244 0.0 1.0 0.00 0.00 0.00 54 1007.9
20260504025906 65 248 2.0 2.0 0.00 0.00 0.00 53 1007.8
20260504025403 65 242 2.0 2.0 0.00 0.00 0.00 53 1007.9
20260504024900 64 247 2.0 2.0 0.00 0.00 0.00 54 1007.9
20260504024356 63 234 1.0 1.0 0.00 0.00 0.00 57 1007.7
20260504023854 63 232 1.0 1.0 0.00 0.00 0.00 58 1008.1
20260504023350 63 226 1.0 1.0 0.00 0.00 0.00 60 1007.8
20260504022846 62 225 0.0 0.0 0.00 0.00 0.00 61 1007.8
20260504022343 63 225 0.0 0.0 0.00 0.00 0.00 61 1007.8
20260504021839 63 226 0.0 0.0 0.00 0.00 0.00 60 1007.8
20260504021337 63 225 0.0 0.0 0.00 0.00 0.00 59 1007.9
20260504020834 63 219 0.0 0.0 0.00 0.00 0.00 60 1007.7
20260504020331 63 219 0.0 0.0 0.00 0.00 0.00 60 1007.8
20260504015826 64 220 1.0 1.0 0.00 0.00 0.00 61 1007.9
20260504015323 64 227 0.0 1.0 0.00 0.00 0.00 58 1008.1
20260504014819 64 216 0.0 1.0 0.00 0.00 0.00 60 1007.7
20260504014315 64 213 1.0 1.0 0.00 0.00 0.00 60 1007.6
20260504013813 64 223 0.0 0.0 0.00 0.00 0.00 58 1007.9
20260504013311 64 219 0.0 0.0 0.00 0.00 0.00 59 1007.9
20260504012807 66 218 1.0 1.0 0.00 0.00 0.00 60 1007.7
20260504012305 66 233 0.0 1.0 0.00 0.00 0.00 54 1008.0
20260504011802 67 237 0.0 1.0 0.00 0.00 0.00 53 1007.6
20260504011258 67 236 2.0 2.0 0.00 0.00 0.00 52 1007.8
20260504010754 67 251 1.0 1.0 0.00 0.00 0.00 52 1007.7
20260504010250 67 264 2.0 3.0 0.00 0.00 0.00 51 1007.6
20260504005747 68 244 3.0 3.0 0.00 0.00 0.00 51 1007.8
20260504005244 68 240 1.0 1.0 0.00 0.00 0.00 51 1007.7
20260504004742 68 248 1.0 2.0 0.00 0.00 0.00 50 1007.7
20260504004239 68 248 1.0 1.0 0.00 0.00 0.00 51 1007.7
20260504003735 68 251 2.0 2.0 0.00 0.00 0.00 50 1007.8
20260504003232 69 238 1.0 2.0 0.00 0.00 0.00 50 1007.9
20260504002729 69 238 1.0 2.0 0.00 0.00 0.00 49 1007.8
20260504002226 69 255 3.0 3.0 0.00 0.00 0.00 49 1007.8
20260504001724 69 257 4.0 5.0 0.00 0.00 0.00 49 1007.9
20260504001220 70 242 1.0 1.0 0.00 0.00 0.00 49 1007.7
20260504000717 70 271 2.0 2.0 0.00 0.00 0.00 49 1007.9
20260504000214 70 239 1.0 1.0 0.00 0.00 0.00 50 1007.4
20260503235713 70 269 4.0 6.0 0.00 0.00 0.00 48 1007.8
20260503235209 70 236 1.0 2.0 0.00 0.00 0.00 50 1007.5
20260503234707 70 254 1.0 2.0 0.00 0.00 0.00 50 1008.1
20260503234205 70 258 2.0 3.0 0.00 0.00 0.00 49 1007.8
20260503233701 70 236 1.0 1.0 0.00 0.00 0.00 48 1007.5
20260503233157 70 233 1.0 2.0 0.00 0.00 0.00 48 1007.9
20260503232654 71 240 1.0 1.0 0.00 0.00 0.00 48 1007.8
20260503232151 71 264 3.0 3.0 0.00 0.00 0.00 49 1007.8
20260503231650 71 269 2.0 2.0 0.00 0.00 0.00 47 1007.6
20260503231145 71 262 4.0 6.0 0.00 0.00 0.00 46 1008.2
20260503230642 71 281 4.0 6.0 0.00 0.00 0.00 48 1008.2
20260503230139 71 276 4.0 5.0 0.00 0.00 0.00 48 1008.0
20260503225637 71 263 3.0 5.0 0.00 0.00 0.00 48 1007.8
20260503225136 71 235 5.0 7.0 0.00 0.00 0.00 48 1008.0
20260503224634 71 263 3.0 3.0 0.00 0.00 0.00 50 1007.9
20260503224132 71 254 3.0 3.0 0.00 0.00 0.00 48 1007.7